Location: Fours
(44.3167°N, 6.7000°E)
Time: 07:01:09
(UTC+00:00)

Cosmos 2218 Rocket - Pass Details

Date: 31 May 2022
Orbit: 956 x 1005 km, 82.9° (Epoch: 03 July)

Event Time Altitude Azimuth Distance (km) Brightness Sun altitude
Rises 02:11:16 0° 352° (N) 3,680 7.7 -14.3°
Reaches altitude 10° 02:13:47 10° 353° (N) 2,735 7.0 -14.0°
Maximum altitude 02:20:04 87° 82° (E) 994 4.1 -13.3°
Drops below altitude 10° 02:26:24 10° 172° (S) 2,751 6.0 -12.6°
Enters shadow 02:28:38 - 173° (S) 3,588 6.6 -12.3°
